Time,TemperatureF,DewpointF,PressureIn,WindDirection,WindDirectionDegrees,WindSpeedMPH,WindSpeedGustMPH,Humidity,HourlyPrecipIn,Conditions,Clouds,dailyrainin,SoftwareType,DateUTC
2013-09-19 00:01:00,71.7,69.0,29.97,SSE,157,3.0,8.0,90,0.00,,,0.00,weatherlink.com 1.10,2013-09-19 05:01:00,
2013-09-19 00:16:00,71.7,69.0,29.97,South,189,6.0,9.0,90,0.00,,,0.00,weatherlink.com 1.10,2013-09-19 05:16:00,
2013-09-19 00:31:00,71.6,68.0,29.97,South,180,2.0,6.0,89,0.00,,,0.00,weatherlink.com 1.10,2013-09-19 05:31:00,
2013-09-19 00:46:00,71.5,68.0,29.97,SE,146,2.0,6.0,89,0.00,,,0.00,weatherlink.com 1.10,2013-09-19 05:46:00,
2013-09-19 01:01:00,71.6,68.0,29.97,SSE,148,6.0,7.0,89,0.00,,,0.00,weatherlink.com 1.10,2013-09-19 06:01:00,
2013-09-19 01:16:00,71.6,68.0,29.97,SSE,166,1.0,8.0,89,0.00,,,0.00,weatherlink.com 1.10,2013-09-19 06:16:00,
2013-09-19 01:31:00,71.9,68.0,29.98,South,174,8.0,9.0,88,0.00,,,0.00,weatherlink.com 1.10,2013-09-19 06:31:00,
2013-09-19 01:47:00,71.7,68.0,29.98,South,179,2.0,7.0,88,0.00,,,0.00,weatherlink.com 1.10,2013-09-19 06:47:00,
2013-09-19 02:02:00,71.6,68.0,29.98,SSW,202,6.0,7.0,88,0.00,,,0.00,weatherlink.com 1.10,2013-09-19 07:02:00,
2013-09-19 02:17:00,71.7,68.0,29.97,South,178,2.0,7.0,88,0.00,,,0.00,weatherlink.com 1.10,2013-09-19 07:17:00,
2013-09-19 02:32:00,71.7,68.0,29.97,SSE,159,6.0,8.0,87,0.00,,,0.00,weatherlink.com 1.10,2013-09-19 07:32:00,
2013-09-19 02:47:00,71.6,68.0,29.98,SW,231,4.0,9.0,87,0.00,,,0.00,weatherlink.com 1.10,2013-09-19 07:47:00,
2013-09-19 03:02:00,71.7,67.0,29.97,SSW,192,4.0,10.0,86,0.00,,,0.00,weatherlink.com 1.10,2013-09-19 08:02:00,
2013-09-19 03:17:00,71.6,67.0,29.97,SSW,194,5.0,9.0,86,0.00,,,0.00,weatherlink.com 1.10,2013-09-19 08:17:00,
2013-09-19 03:32:00,71.2,67.0,29.97,South,170,4.0,7.0,86,0.00,,,0.00,weatherlink.com 1.10,2013-09-19 08:32:00,
2013-09-19 03:47:00,71.1,67.0,29.97,South,169,1.0,8.0,86,0.00,,,0.00,weatherlink.com 1.10,2013-09-19 08:47:00,
2013-09-19 04:02:00,70.9,67.0,29.97,South,177,2.0,6.0,86,0.00,,,0.00,weatherlink.com 1.10,2013-09-19 09:02:00,
2013-09-19 04:17:00,70.6,66.0,29.97,SE,132,2.0,5.0,86,0.00,,,0.00,weatherlink.com 1.10,2013-09-19 09:17:00,
2013-09-19 04:32:00,70.7,66.0,29.97,SSE,156,4.0,7.0,85,0.00,,,0.00,weatherlink.com 1.10,2013-09-19 09:32:00,
2013-09-19 04:47:00,70.6,66.0,29.97,SSE,163,2.0,7.0,85,0.00,,,0.00,weatherlink.com 1.10,2013-09-19 09:47:00,
2013-09-19 05:02:00,70.7,66.0,29.97,SSE,148,3.0,7.0,85,0.00,,,0.00,weatherlink.com 1.10,2013-09-19 10:02:00,
2013-09-19 05:17:00,70.6,66.0,29.97,South,191,2.0,8.0,85,0.00,,,0.00,weatherlink.com 1.10,2013-09-19 10:17:00,
2013-09-19 05:32:00,70.7,66.0,29.98,SSE,164,2.0,11.0,85,0.00,,,0.00,weatherlink.com 1.10,2013-09-19 10:32:00,
2013-09-19 05:47:00,70.9,66.0,29.98,South,174,5.0,9.0,85,0.00,,,0.00,weatherlink.com 1.10,2013-09-19 10:47:00,
2013-09-19 06:02:00,71.0,66.0,29.98,SSE,157,2.0,7.0,85,0.00,,,0.00,weatherlink.com 1.10,2013-09-19 11:02:00,
2013-09-19 06:17:00,71.0,66.0,29.98,SSW,206,5.0,9.0,85,0.00,,,0.00,weatherlink.com 1.10,2013-09-19 11:17:00,
2013-09-19 06:32:00,71.2,67.0,29.98,SSE,147,1.0,9.0,85,0.00,,,0.00,weatherlink.com 1.10,2013-09-19 11:32:00,
2013-09-19 06:47:00,71.3,66.0,29.98,SSE,165,5.0,11.0,84,0.00,,,0.00,weatherlink.com 1.10,2013-09-19 11:47:00,
2013-09-19 07:02:00,71.2,67.0,29.99,SSW,198,3.0,9.0,85,0.00,,,0.00,weatherlink.com 1.10,2013-09-19 12:02:00,
2013-09-19 07:17:00,71.1,67.0,29.99,South,188,2.0,6.0,86,0.00,,,0.00,weatherlink.com 1.10,2013-09-19 12:17:00,
2013-09-19 07:32:00,71.0,67.0,29.99,SSE,157,3.0,9.0,86,0.00,,,0.00,weatherlink.com 1.10,2013-09-19 12:32:00,
2013-09-19 07:47:00,71.2,67.0,29.99,South,169,2.0,7.0,86,0.00,,,0.00,weatherlink.com 1.10,2013-09-19 12:47:00,
2013-09-19 08:02:00,71.4,67.0,29.99,South,180,3.0,8.0,86,0.00,,,0.00,weatherlink.com 1.10,2013-09-19 13:02:00,
2013-09-19 08:17:00,71.6,67.0,30.00,SSW,194,6.0,9.0,86,0.00,,,0.00,weatherlink.com 1.10,2013-09-19 13:17:00,
2013-09-19 08:32:00,72.0,68.0,30.00,SW,221,5.0,8.0,86,0.00,,,0.00,weatherlink.com 1.10,2013-09-19 13:32:00,
2013-09-19 08:47:00,72.5,68.0,30.00,SW,228,4.0,13.0,86,0.00,,,0.00,weatherlink.com 1.10,2013-09-19 13:47:00,
2013-09-19 09:02:00,72.9,68.0,30.00,South,171,4.0,10.0,85,0.00,,,0.00,weatherlink.com 1.10,2013-09-19 14:02:00,
2013-09-19 09:17:00,73.5,69.0,30.00,South,178,7.0,12.0,85,0.00,,,0.00,weatherlink.com 1.10,2013-09-19 14:17:00,
2013-09-19 09:32:00,74.5,69.0,30.00,SSW,213,7.0,14.0,83,0.00,,,0.00,weatherlink.com 1.10,2013-09-19 14:32:00,
2013-09-19 09:47:00,75.2,69.0,30.01,SW,222,4.0,13.0,82,0.00,,,0.00,weatherlink.com 1.10,2013-09-19 14:47:00,
2013-09-19 10:02:00,75.8,70.0,30.01,South,177,8.0,13.0,81,0.00,,,0.00,weatherlink.com 1.10,2013-09-19 15:02:00,
2013-09-19 10:17:00,76.0,70.0,30.01,SSW,196,6.0,10.0,81,0.00,,,0.00,weatherlink.com 1.10,2013-09-19 15:17:00,
2013-09-19 10:32:00,76.6,70.0,30.01,WSW,238,4.0,10.0,81,0.00,,,0.00,weatherlink.com 1.10,2013-09-19 15:32:00,
2013-09-19 10:47:00,77.8,71.0,30.01,SSW,206,5.0,11.0,79,0.00,,,0.00,weatherlink.com 1.10,2013-09-19 15:47:00,
2013-09-19 11:02:00,79.7,71.0,30.01,South,186,5.0,14.0,75,0.00,,,0.00,weatherlink.com 1.10,2013-09-19 16:02:00,
2013-09-19 11:18:00,79.9,72.0,30.01,SSW,205,3.0,11.0,76,0.00,,,0.00,weatherlink.com 1.10,2013-09-19 16:18:00,
2013-09-19 11:33:00,80.8,71.0,30.01,SSW,200,8.0,13.0,72,0.00,,,0.00,weatherlink.com 1.10,2013-09-19 16:33:00,
2013-09-19 11:48:00,81.9,72.0,30.01,WSW,252,12.0,17.0,73,0.00,,,0.00,weatherlink.com 1.10,2013-09-19 16:48:00,
2013-09-19 12:03:00,82.7,72.0,30.01,WSW,240,11.0,13.0,69,0.00,,,0.00,weatherlink.com 1.10,2013-09-19 17:03:00,
2013-09-19 12:18:00,82.8,72.0,30.01,SSW,205,11.0,13.0,70,0.00,,,0.00,weatherlink.com 1.10,2013-09-19 17:18:00,
2013-09-19 12:33:00,83.2,73.0,30.00,SSW,200,6.0,12.0,71,0.00,,,0.00,weatherlink.com 1.10,2013-09-19 17:33:00,
2013-09-19 12:48:00,84.5,73.0,30.00,WSW,240,13.0,15.0,69,0.00,,,0.00,weatherlink.com 1.10,2013-09-19 17:48:00,
2013-09-19 13:03:00,85.3,72.0,29.99,WSW,244,9.0,18.0,64,0.00,,,0.00,weatherlink.com 1.10,2013-09-19 18:03:00,
2013-09-19 13:33:00,86.5,72.0,29.98,SW,220,8.0,14.0,62,0.00,,,0.00,weatherlink.com 1.10,2013-09-19 18:33:00,
2013-09-19 13:48:00,86.8,72.0,29.97,SSW,200,10.0,17.0,62,0.00,,,0.00,weatherlink.com 1.10,2013-09-19 18:48:00,
2013-09-19 14:03:00,86.2,71.0,29.97,WSW,248,4.0,15.0,61,0.00,,,0.00,weatherlink.com 1.10,2013-09-19 19:03:00,
2013-09-19 14:18:00,87.3,72.0,29.96,West,264,9.0,15.0,60,0.00,,,0.00,weatherlink.com 1.10,2013-09-19 19:18:00,
2013-09-19 14:33:00,87.0,71.0,29.95,SW,230,8.0,15.0,60,0.00,,,0.00,weatherlink.com 1.10,2013-09-19 19:33:00,
2013-09-19 14:48:00,87.7,71.0,29.95,SW,228,7.0,11.0,58,0.00,,,0.00,weatherlink.com 1.10,2013-09-19 19:48:00,
2013-09-19 15:03:00,86.4,70.0,29.94,SW,222,4.0,10.0,59,0.00,,,0.00,weatherlink.com 1.10,2013-09-19 20:03:00,
2013-09-19 15:18:00,86.1,72.0,29.93,SSW,209,4.0,9.0,62,0.00,,,0.00,weatherlink.com 1.10,2013-09-19 20:18:00,
2013-09-19 15:33:00,88.1,71.0,29.93,NNW,328,5.0,11.0,57,0.00,,,0.00,weatherlink.com 1.10,2013-09-19 20:33:00,
2013-09-19 15:48:00,88.1,70.0,29.92,SW,224,4.0,10.0,56,0.00,,,0.00,weatherlink.com 1.10,2013-09-19 20:48:00,
2013-09-19 16:03:00,88.4,71.0,29.91,SW,216,2.0,13.0,57,0.00,,,0.00,weatherlink.com 1.10,2013-09-19 21:03:00,
2013-09-19 16:18:00,87.1,70.0,29.91,SSW,200,6.0,11.0,57,0.00,,,0.00,weatherlink.com 1.10,2013-09-19 21:18:00,
2013-09-19 16:33:00,86.4,70.0,29.91,SW,219,5.0,11.0,59,0.00,,,0.00,weatherlink.com 1.10,2013-09-19 21:33:00,
2013-09-19 16:48:00,86.0,71.0,29.91,South,180,2.0,8.0,61,0.00,,,0.00,weatherlink.com 1.10,2013-09-19 21:48:00,
2013-09-19 17:03:00,83.0,70.0,29.92,SE,139,11.0,19.0,65,0.00,,,0.00,weatherlink.com 1.10,2013-09-19 22:03:00,
2013-09-19 17:18:00,79.6,69.0,29.91,SSE,159,1.0,15.0,71,0.00,,,0.00,weatherlink.com 1.10,2013-09-19 22:18:00,
2013-09-19 17:33:00,78.7,68.0,29.89,SE,140,5.0,14.0,70,0.00,,,0.00,weatherlink.com 1.10,2013-09-19 22:33:00,
2013-09-19 17:48:00,78.0,69.0,29.90,South,181,3.0,11.0,73,0.00,,,0.00,weatherlink.com 1.10,2013-09-19 22:48:00,
2013-09-19 18:03:00,77.2,68.0,29.90,SE,135,9.0,20.0,73,0.00,,,0.00,weatherlink.com 1.10,2013-09-19 23:03:00,
2013-09-19 18:18:00,75.7,68.0,29.91,SSE,165,7.0,22.0,78,0.00,,,0.00,weatherlink.com 1.10,2013-09-19 23:18:00,
2013-09-19 18:33:00,74.6,68.0,29.90,SE,138,11.0,17.0,80,0.00,,,0.00,weatherlink.com 1.10,2013-09-19 23:33:00,
2013-09-19 18:48:00,74.1,68.0,29.89,South,180,5.0,18.0,80,0.00,,,0.00,weatherlink.com 1.10,2013-09-19 23:48:00,
2013-09-19 19:03:00,73.7,67.0,29.88,SSE,157,2.0,12.0,80,0.00,,,0.00,weatherlink.com 1.10,2013-09-20 00:03:00,
2013-09-19 19:18:00,73.2,67.0,29.88,South,179,1.0,9.0,80,0.00,,,0.00,weatherlink.com 1.10,2013-09-20 00:18:00,
2013-09-19 19:33:00,73.0,67.0,29.88,South,186,3.0,7.0,80,0.00,,,0.00,weatherlink.com 1.10,2013-09-20 00:33:00,
2013-09-19 19:48:00,73.1,67.0,29.89,SE,139,2.0,8.0,81,0.00,,,0.00,weatherlink.com 1.10,2013-09-20 00:48:00,
2013-09-19 20:03:00,73.5,68.0,29.90,South,189,4.0,12.0,82,0.00,,,0.00,weatherlink.com 1.10,2013-09-20 01:03:00,
2013-09-19 20:18:00,73.4,68.0,29.92,West,266,6.0,11.0,83,0.00,,,0.00,weatherlink.com 1.10,2013-09-20 01:18:00,
2013-09-19 20:34:00,73.1,68.0,29.93,South,178,6.0,13.0,84,0.00,,,0.00,weatherlink.com 1.10,2013-09-20 01:34:00,
2013-09-19 20:49:00,72.7,68.0,29.94,SSW,198,6.0,9.0,85,0.00,,,0.00,weatherlink.com 1.10,2013-09-20 01:49:00,
2013-09-19 21:04:00,72.6,68.0,29.94,South,182,4.0,11.0,86,0.00,,,0.00,weatherlink.com 1.10,2013-09-20 02:04:00,
2013-09-19 21:19:00,72.4,68.0,29.95,South,191,4.0,9.0,87,0.00,,,0.00,weatherlink.com 1.10,2013-09-20 02:19:00,
2013-09-19 21:34:00,72.1,68.0,29.94,SE,144,3.0,8.0,88,0.00,,,0.00,weatherlink.com 1.10,2013-09-20 02:34:00,
2013-09-19 21:49:00,72.0,69.0,29.94,South,186,3.0,6.0,89,0.00,,,0.00,weatherlink.com 1.10,2013-09-20 02:49:00,
2013-09-19 22:04:00,72.2,69.0,29.93,SSE,157,1.0,8.0,89,0.00,,,0.00,weatherlink.com 1.10,2013-09-20 03:04:00,
2013-09-19 22:19:00,72.4,69.0,29.93,South,184,2.0,10.0,89,0.00,,,0.00,weatherlink.com 1.10,2013-09-20 03:19:00,
2013-09-19 22:34:00,72.6,69.0,29.93,SSW,193,5.0,9.0,89,0.00,,,0.00,weatherlink.com 1.10,2013-09-20 03:34:00,
2013-09-19 22:49:00,72.7,69.0,29.93,SSW,199,5.0,9.0,89,0.00,,,0.00,weatherlink.com 1.10,2013-09-20 03:49:00,
2013-09-19 23:04:00,72.8,70.0,29.92,South,173,3.0,10.0,89,0.00,,,0.00,weatherlink.com 1.10,2013-09-20 04:04:00,
2013-09-19 23:19:00,73.0,70.0,29.92,South,179,2.0,7.0,89,0.00,,,0.00,weatherlink.com 1.10,2013-09-20 04:19:00,
2013-09-19 23:34:00,73.0,70.0,29.91,SSW,211,3.0,11.0,89,0.00,,,0.00,weatherlink.com 1.10,2013-09-20 04:34:00,
2013-09-19 23:49:00,73.5,70.0,29.92,SW,221,5.0,10.0,88,0.00,,,0.00,weatherlink.com 1.10,2013-09-20 04:49:00,